This is the latest recevied weather packets stored in our database for station/object N5KJT. If no packets are shown the sender has not sent any weather packets the latest 10 day(s).
| Time | Temp. | Humidity | Pressure | Rain* | Wind** | Luminosity | Snow |
|---|---|---|---|---|---|---|---|
| 1787968814 | 27.22° C | 37% | 1025.1 hPa | 0 mm | - | 0 W/m² | - |
| 1787968515 | 27.22° C | 37% | 1025.2 hPa | 0 mm | - | 0 W/m² | - |
| 1787968215 | 27.78° C | 37% | 1025.2 hPa | 0 mm | - | 0 W/m² | - |
| 1787967915 | 27.78° C | 38% | 1025.1 hPa | 0 mm | - | 0 W/m² | - |
| 1787967615 | 28.33° C | 38% | 1025 hPa | 0 mm | - | 0 W/m² | - |
| 1787967315 | 28.33° C | 37% | 1025 hPa | 0 mm | - | 1 W/m² | - |
| 1787967015 | 28.89° C | 35% | 1025 hPa | 0 mm | - | 7 W/m² | - |
| 1787966717 | 28.89° C | 34% | 1024.9 hPa | 0 mm | - | 16 W/m² | - |
| 1787966417 | 29.44° C | 33% | 1024.9 hPa | 0 mm | - | 29 W/m² | - |
| 1787966116 | 29.44° C | 33% | 1024.9 hPa | 0 mm | - | 37 W/m² | - |
| 1787965816 | 30° C | 32% | 1024.8 hPa | 0 mm | - | 49 W/m² | - |
| 1787965517 | 30° C | 32% | 1024.7 hPa | 0 mm | - | 68 W/m² | - |
| 1787965217 | 30° C | 32% | 1024.7 hPa | 0 mm | - | 109 W/m² | - |
| 1787964917 | 30° C | 34% | 1024.8 hPa | 0 mm | - | 164 W/m² | - |
| 1787964617 | 30° C | 36% | 1024.9 hPa | 0 mm | - | 179 W/m² | - |
| 1787964316 | 30° C | 36% | 1024.9 hPa | 0 mm | - | 206 W/m² | - |
| 1787964017 | 30° C | 37% | 1024.9 hPa | 0 mm | - | 229 W/m² | - |
| 1787963717 | 30° C | 36% | 1024.9 hPa | 0 mm | - | 237 W/m² | - |
| 1787963417 | 30° C | 35% | 1025 hPa | 0 mm | - | 145 W/m² | - |
| 1787963117 | 30.56° C | 36% | 1025 hPa | 0 mm | - | 176 W/m² | - |
| 1787962816 | 30.56° C | 35% | 1025 hPa | 0 mm | - | 320 W/m² | - |
| 1787962516 | 30.56° C | 31% | 1025.1 hPa | 0 mm | - | 298 W/m² | - |
| 1787962217 | 30° C | 30% | 1025 hPa | 0 mm | - | 333 W/m² | - |
| 1787961917 | 30.56° C | 30% | 1025 hPa | 0 mm | - | 156 W/m² | - |
| 1787961617 | 30.56° C | 30% | 1024.9 hPa | 0 mm | - | 118 W/m² | - |
* Rain latest hour (hover to see other rain measurements)
** Current wind speed in m/s (hover to see current wind gust speed)